| time (UTC) | temp F | wind direction | speed MPH | gust MPH | rain 1hr in | rain 24hr in | rain mn in | humidity % | barometer mb |
| 20260503191147 | 70 | 79 | 3.0 | 3.0 | 0.00 | 0.00 | 0.00 | 52 | 1018.4 |
| 20260503190643 | 70 | 129 | 2.0 | 2.0 | 0.00 | 0.00 | 0.00 | 51 | 1018.7 |
| 20260503190140 | 69 | 356 | 4.0 | 5.0 | 0.00 | 0.00 | 0.00 | 53 | 1018.7 |
| 20260503185637 | 69 | 119 | 0.0 | 1.0 | 0.00 | 0.00 | 0.00 | 52 | 1018.7 |
| 20260503185132 | 69 | 124 | 1.0 | 1.0 | 0.00 | 0.00 | 0.00 | 53 | 1018.9 |
| 20260503184628 | 69 | 147 | 2.0 | 3.0 | 0.00 | 0.00 | 0.00 | 50 | 1018.8 |
| 20260503184124 | 71 | 113 | 3.0 | 3.0 | 0.00 | 0.00 | 0.00 | 50 | 1019.2 |
| 20260503183621 | 69 | 352 | 2.0 | 3.0 | 0.00 | 0.00 | 0.00 | 53 | 1019.0 |
| 20260503183118 | 70 | 112 | 4.0 | 6.0 | 0.00 | 0.00 | 0.00 | 50 | 1019.1 |
| 20260503182616 | 70 | 106 | 3.0 | 3.0 | 0.00 | 0.00 | 0.00 | 47 | 1019.2 |
| 20260503182114 | 70 | 128 | 2.0 | 2.0 | 0.00 | 0.00 | 0.00 | 50 | 1019.5 |
| 20260503181611 | 69 | 276 | 5.0 | 6.0 | 0.00 | 0.00 | 0.00 | 53 | 1018.9 |
| 20260503181108 | 70 | 84 | 2.0 | 2.0 | 0.00 | 0.00 | 0.00 | 48 | 1019.3 |
| 20260503180605 | 70 | 272 | 6.0 | 7.0 | 0.00 | 0.00 | 0.00 | 54 | 1019.2 |
| 20260503180103 | 71 | 92 | 1.0 | 2.0 | 0.00 | 0.00 | 0.00 | 48 | 1019.3 |
| 20260503175559 | 72 | 309 | 2.0 | 3.0 | 0.00 | 0.00 | 0.00 | 50 | 1019.4 |
| 20260503175056 | 70 | 111 | 0.0 | 1.0 | 0.00 | 0.00 | 0.00 | 57 | 1019.4 |
| 20260503174553 | 69 | 300 | 11.0 | 14.0 | 0.00 | 0.00 | 0.00 | 52 | 1019.5 |
| 20260503174050 | 69 | 249 | 2.0 | 2.0 | 0.00 | 0.00 | 0.00 | 51 | 1019.4 |
| 20260503173545 | 71 | 151 | 2.0 | 2.0 | 0.00 | 0.00 | 0.00 | 51 | 1019.3 |
| 20260503173041 | 69 | 77 | 2.0 | 2.0 | 0.00 | 0.00 | 0.00 | 51 | 1019.3 |
| 20260503172539 | 67 | 120 | 1.0 | 1.0 | 0.00 | 0.00 | 0.00 | 56 | 1019.6 |
| 20260503172036 | 68 | 105 | 0.0 | 1.0 | 0.00 | 0.00 | 0.00 | 52 | 1019.8 |
| 20260503171532 | 69 | 100 | 1.0 | 1.0 | 0.00 | 0.00 | 0.00 | 49 | 1019.8 |
| 20260503171030 | 68 | 78 | 2.0 | 2.0 | 0.00 | 0.00 | 0.00 | 54 | 1019.8 |
| 20260503170526 | 67 | 119 | 0.0 | 1.0 | 0.00 | 0.00 | 0.00 | 54 | 1019.8 |
| 20260503150912 | 65 | 89 | 1.0 | 2.0 | 0.00 | 0.00 | 0.00 | 55 | 1020.2 |
| 20260503150409 | 66 | 96 | 1.0 | 1.0 | 0.00 | 0.00 | 0.00 | 60 | 1020.4 |
| 20260503131256 | 61 | 109 | 0.0 | 1.0 | 0.00 | 0.00 | 0.00 | 89 | 1019.7 |
| 20260503130754 | 60 | 108 | 0.0 | 1.0 | 0.00 | 0.00 | 0.00 | 92 | 1019.8 |
| 20260503130251 | 60 | 106 | 1.0 | 1.0 | 0.00 | 0.00 | 0.00 | 91 | 1019.7 |
| 20260503120217 | 53 | 102 | 0.0 | 0.0 | 0.00 | 0.00 | 0.00 | 99 | 1019.3 |
| 20260503110644 | 48 | 97 | 0.0 | 0.0 | 0.00 | 0.00 | 0.00 | 99 | 1018.7 |
| 20260503110142 | 48 | 97 | 0.0 | 0.0 | 0.00 | 0.00 | 0.00 | 99 | 1018.6 |
| 20260503100109 | 48 | 97 | 0.0 | 0.0 | 0.00 | 0.00 | 0.00 | 99 | 1017.9 |
| 20260503081452 | 49 | 98 | 0.0 | 0.0 | 0.00 | 0.00 | 0.00 | 99 | 1017.2 |
| 20260503080949 | 49 | 98 | 0.0 | 0.0 | 0.00 | 0.00 | 0.00 | 99 | 1016.9 |
| 20260503080445 | 49 | 98 | 0.0 | 0.0 | 0.00 | 0.00 | 0.00 | 99 | 1017.0 |
| 20260503072921 | 50 | 98 | 0.0 | 0.0 | 0.00 | 0.00 | 0.00 | 99 | 1016.6 |
| 20260503072419 | 50 | 98 | 0.0 | 0.0 | 0.00 | 0.00 | 0.00 | 99 | 1016.5 |
| 20260503071916 | 50 | 98 | 0.0 | 0.0 | 0.00 | 0.00 | 0.00 | 99 | 1016.6 |
| 20260503071413 | 50 | 98 | 0.0 | 0.0 | 0.00 | 0.00 | 0.00 | 99 | 1016.5 |
| 20260503070909 | 50 | 98 | 0.0 | 0.0 | 0.00 | 0.00 | 0.00 | 99 | 1016.5 |
| 20260503070406 | 50 | 98 | 0.0 | 0.0 | 0.00 | 0.00 | 0.00 | 99 | 1016.3 |
| 20260503060332 | 51 | 98 | 0.0 | 0.0 | 0.00 | 0.00 | 0.00 | 99 | 1016.3 |
| 20260503054820 | 51 | 98 | 0.0 | 0.0 | 0.00 | 0.00 | 0.00 | 99 | 1016.4 |
| 20260503054316 | 51 | 98 | 0.0 | 0.0 | 0.00 | 0.00 | 0.00 | 99 | 1016.3 |
| 20260503053814 | 51 | 98 | 0.0 | 0.0 | 0.00 | 0.00 | 0.00 | 99 | 1016.3 |
| 20260503053312 | 51 | 98 | 0.0 | 0.0 | 0.00 | 0.00 | 0.00 | 99 | 1016.3 |
| 20260503052808 | 51 | 98 | 0.0 | 0.0 | 0.00 | 0.00 | 0.00 | 99 | 1016.2 |
| 20260503052306 | 51 | 99 | 0.0 | 0.0 | 0.00 | 0.00 | 0.00 | 99 | 1016.2 |
| 20260503051801 | 52 | 98 | 0.0 | 0.0 | 0.00 | 0.00 | 0.00 | 99 | 1016.2 |
| 20260503051258 | 52 | 98 | 0.0 | 0.0 | 0.00 | 0.00 | 0.00 | 99 | 1016.2 |
| 20260503050754 | 53 | 98 | 0.0 | 0.0 | 0.00 | 0.00 | 0.00 | 99 | 1016.1 |
| 20260503050250 | 53 | 98 | 0.0 | 0.0 | 0.00 | 0.00 | 0.00 | 99 | 1016.0 |
| 20260503045748 | 52 | 99 | 0.0 | 0.0 | 0.00 | 0.00 | 0.00 | 99 | 1016.0 |
| 20260503045246 | 52 | 99 | 0.0 | 0.0 | 0.00 | 0.00 | 0.00 | 99 | 1016.1 |
| 20260503044742 | 52 | 99 | 0.0 | 0.0 | 0.00 | 0.00 | 0.00 | 99 | 1015.9 |
| 20260503044239 | 53 | 99 | 0.0 | 0.0 | 0.00 | 0.00 | 0.00 | 99 | 1016.0 |
| 20260503043736 | 53 | 99 | 0.0 | 0.0 | 0.00 | 0.00 | 0.00 | 99 | 1015.9 |
| 20260503043233 | 53 | 100 | 0.0 | 0.0 | 0.00 | 0.00 | 0.00 | 99 | 1015.7 |
| 20260503042729 | 53 | 101 | 0.0 | 0.0 | 0.00 | 0.00 | 0.00 | 99 | 1015.7 |
| 20260503042226 | 53 | 99 | 0.0 | 0.0 | 0.00 | 0.00 | 0.00 | 99 | 1015.5 |
| 20260503041722 | 54 | 99 | 0.0 | 0.0 | 0.00 | 0.00 | 0.00 | 99 | 1015.5 |
| 20260503041220 | 54 | 98 | 0.0 | 0.0 | 0.00 | 0.00 | 0.00 | 99 | 1015.5 |
| 20260503040717 | 54 | 100 | 0.0 | 0.0 | 0.00 | 0.00 | 0.00 | 99 | 1015.6 |
| 20260503040215 | 54 | 89 | 1.0 | 1.0 | 0.00 | 0.00 | 0.00 | 99 | 1015.9 |
| 20260503035711 | 54 | 82 | 1.0 | 1.0 | 0.00 | 1.05 | 1.05 | 99 | 1015.2 |
| 20260503035209 | 55 | 96 | 1.0 | 1.0 | 0.00 | 1.05 | 1.05 | 99 | 1015.2 |
| 20260503034706 | 55 | 331 | 3.0 | 5.0 | 0.00 | 1.05 | 1.05 | 99 | 1015.2 |
| 20260503034203 | 55 | 62 | 2.0 | 2.0 | 0.00 | 1.05 | 1.05 | 99 | 1015.5 |
| 20260503033700 | 54 | 105 | 0.0 | 0.0 | 0.00 | 1.05 | 1.05 | 99 | 1015.3 |
| 20260503033158 | 54 | 106 | 0.0 | 0.0 | 0.00 | 1.05 | 1.05 | 99 | 1015.2 |
| 20260503032656 | 54 | 101 | 0.0 | 0.0 | 0.00 | 1.05 | 1.05 | 99 | 1015.0 |
| 20260503032154 | 54 | 100 | 0.0 | 0.0 | 0.00 | 1.05 | 1.05 | 99 | 1015.0 |
| 20260503031651 | 54 | 101 | 0.0 | 0.0 | 0.00 | 1.05 | 1.05 | 99 | 1015.0 |
| 20260503031149 | 54 | 101 | 0.0 | 0.0 | 0.00 | 1.05 | 1.05 | 99 | 1014.8 |
| 20260503030644 | 54 | 101 | 0.0 | 0.0 | 0.00 | 1.05 | 1.05 | 99 | 1014.8 |
| 20260503030142 | 54 | 100 | 0.0 | 0.0 | 0.00 | 1.05 | 1.05 | 99 | 1014.7 |
| 20260503025638 | 54 | 101 | 0.0 | 0.0 | 0.00 | 1.05 | 1.05 | 99 | 1014.6 |
| 20260503025136 | 54 | 99 | 0.0 | 0.0 | 0.00 | 1.05 | 1.05 | 99 | 1014.6 |
| 20260503024632 | 54 | 100 | 0.0 | 0.0 | 0.00 | 1.05 | 1.05 | 99 | 1014.5 |
| 20260503024130 | 55 | 103 | 0.0 | 0.0 | 0.00 | 1.05 | 1.05 | 99 | 1014.2 |
| 20260503023627 | 55 | 96 | 0.0 | 0.0 | 0.00 | 1.05 | 1.05 | 99 | 1014.2 |
| 20260503023124 | 55 | 99 | 0.0 | 1.0 | 0.00 | 1.05 | 1.05 | 99 | 1014.3 |
| 20260503022619 | 55 | 114 | 0.0 | 1.0 | 0.00 | 1.05 | 1.05 | 99 | 1014.1 |
| 20260503022114 | 55 | 104 | 0.0 | 1.0 | 0.00 | 1.05 | 1.05 | 99 | 1014.1 |
| 20260503021612 | 55 | 102 | 1.0 | 1.0 | 0.00 | 1.05 | 1.05 | 99 | 1014.2 |
| 20260503021108 | 55 | 101 | 0.0 | 0.0 | 0.00 | 1.05 | 1.05 | 99 | 1013.9 |
| 20260503020605 | 55 | 95 | 1.0 | 1.0 | 0.00 | 1.05 | 1.05 | 99 | 1014.0 |
| 20260503015553 | 56 | 102 | 0.0 | 1.0 | 0.00 | 1.05 | 1.05 | 99 | 1013.8 |
| 20260503015051 | 56 | 99 | 0.0 | 0.0 | 0.00 | 1.05 | 1.05 | 99 | 1013.5 |
| 20260503014546 | 56 | 100 | 0.0 | 0.0 | 0.00 | 1.05 | 1.05 | 99 | 1013.4 |
| 20260503014044 | 56 | 103 | 0.0 | 0.0 | 0.00 | 1.05 | 1.05 | 99 | 1013.4 |
| 20260503013541 | 56 | 101 | 0.0 | 0.0 | 0.00 | 1.05 | 1.05 | 99 | 1013.2 |
| 20260503013039 | 56 | 103 | 0.0 | 1.0 | 0.00 | 1.05 | 1.05 | 99 | 1013.4 |
| 20260503012536 | 56 | 105 | 0.0 | 0.0 | 0.00 | 1.05 | 1.05 | 99 | 1013.5 |
| 20260503012032 | 56 | 103 | 0.0 | 0.0 | 0.00 | 1.05 | 1.05 | 99 | 1013.5 |
| 20260503011529 | 56 | 107 | 0.0 | 0.0 | 0.00 | 1.05 | 1.05 | 99 | 1013.2 |
| 20260503011027 | 56 | 66 | 0.0 | 1.0 | 0.00 | 1.05 | 1.05 | 99 | 1013.3 |
| 20260503010523 | 56 | 107 | 1.0 | 1.0 | 0.00 | 1.05 | 1.05 | 99 | 1013.1 |
| 20260503010020 | 56 | 98 | 1.0 | 1.0 | 0.00 | 1.05 | 1.05 | 99 | 1013.5 |
| 20260503005512 | 56 | 103 | 0.0 | 0.0 | 0.00 | 1.05 | 1.05 | 99 | 1013.3 |
| 20260503005009 | 56 | 96 | 0.0 | 0.0 | 0.00 | 1.05 | 1.05 | 99 | 1013.6 |
| 20260503004504 | 56 | 93 | 1.0 | 1.0 | 0.00 | 1.05 | 1.05 | 99 | 1013.3 |
| 20260503004003 | 56 | 77 | 2.0 | 2.0 | 0.00 | 1.05 | 1.05 | 99 | 1013.1 |
| 20260503003459 | 56 | 102 | 0.0 | 1.0 | 0.00 | 1.05 | 1.05 | 99 | 1013.2 |
| 20260503002957 | 56 | 97 | 1.0 | 1.0 | 0.00 | 1.05 | 1.05 | 99 | 1012.7 |
| 20260503002454 | 56 | 100 | 0.0 | 0.0 | 0.00 | 1.05 | 1.05 | 99 | 1012.8 |
| 20260503001949 | 56 | 96 | 0.0 | 0.0 | 0.00 | 1.05 | 1.05 | 99 | 1012.7 |
| 20260503001446 | 56 | 106 | 0.0 | 0.0 | 0.00 | 1.05 | 1.05 | 99 | 1012.7 |
| 20260503000944 | 56 | 102 | 0.0 | 0.0 | 0.00 | 1.05 | 1.05 | 99 | 1012.5 |
| 20260503000441 | 56 | 94 | 2.0 | 2.0 | 0.00 | 1.05 | 1.05 | 99 | 1012.4 |
| 20260502235938 | 56 | 95 | 0.0 | 0.0 | 0.00 | 1.05 | 1.05 | 99 | 1012.5 |
| 20260502235435 | 56 | 100 | 0.0 | 0.0 | 0.00 | 1.05 | 1.05 | 99 | 1012.3 |
| 20260502234932 | 57 | 102 | 0.0 | 1.0 | 0.00 | 1.05 | 1.05 | 99 | 1012.0 |
| 20260502234428 | 57 | 70 | 1.0 | 1.0 | 0.00 | 1.05 | 1.05 | 99 | 1012.5 |
| 20260502233926 | 57 | 113 | 1.0 | 1.0 | 0.00 | 1.05 | 1.05 | 99 | 1012.5 |
| 20260502233421 | 57 | 91 | 1.0 | 3.0 | 0.00 | 1.05 | 1.05 | 99 | 1012.3 |
| 20260502232919 | 57 | 65 | 3.0 | 7.0 | 0.00 | 1.05 | 1.05 | 99 | 1012.0 |
| 20260502232415 | 57 | 107 | 0.0 | 1.0 | 0.00 | 1.05 | 1.05 | 99 | 1011.8 |
| 20260502231912 | 57 | 105 | 0.0 | 0.0 | 0.00 | 1.05 | 1.05 | 99 | 1012.0 |
| 20260502231409 | 57 | 99 | 0.0 | 0.0 | 0.00 | 1.05 | 1.05 | 99 | 1011.7 |
| 20260502230907 | 57 | 72 | 0.0 | 1.0 | 0.00 | 1.05 | 1.05 | 99 | 1011.9 |
| 20260502230405 | 57 | 51 | 2.0 | 2.0 | 0.00 | 1.05 | 1.05 | 99 | 1011.9 |
| 20260502225902 | 57 | 97 | 2.0 | 2.0 | 0.00 | 1.05 | 1.05 | 99 | 1011.7 |
| 20260502225358 | 57 | 69 | 1.0 | 1.0 | 0.00 | 1.05 | 1.05 | 99 | 1011.6 |
| 20260502224855 | 57 | 98 | 1.0 | 2.0 | 0.00 | 1.05 | 1.05 | 99 | 1011.5 |
| 20260502224351 | 57 | 81 | 3.0 | 5.0 | 0.00 | 1.05 | 1.05 | 99 | 1011.9 |
| 20260502223849 | 57 | 113 | 0.0 | 1.0 | 0.00 | 1.05 | 1.05 | 99 | 1012.0 |
| 20260502223347 | 57 | 138 | 1.0 | 1.0 | 0.00 | 1.05 | 1.05 | 99 | 1012.1 |
| 20260502222844 | 57 | 102 | 0.0 | 1.0 | 0.00 | 1.05 | 1.05 | 99 | 1011.6 |
| 20260502222342 | 57 | 100 | 2.0 | 2.0 | 0.00 | 1.05 | 1.05 | 99 | 1011.9 |
| 20260502221837 | 57 | 91 | 1.0 | 2.0 | 0.00 | 1.05 | 1.05 | 99 | 1011.9 |
| 20260502221334 | 57 | 90 | 1.0 | 1.0 | 0.00 | 1.05 | 1.05 | 99 | 1011.5 |
| 20260502220831 | 57 | 96 | 1.0 | 1.0 | 0.00 | 1.05 | 1.05 | 99 | 1011.7 |
| 20260502220327 | 57 | 54 | 1.0 | 2.0 | 0.00 | 1.05 | 1.05 | 99 | 1011.5 |
| 20260502215823 | 57 | 75 | 1.0 | 2.0 | 0.00 | 1.05 | 1.05 | 99 | 1011.6 |
| 20260502215321 | 57 | 25 | 3.0 | 3.0 | 0.00 | 1.05 | 1.05 | 99 | 1011.6 |
| 20260502214818 | 57 | 116 | 2.0 | 2.0 | 0.00 | 1.05 | 1.05 | 99 | 1011.5 |
| 20260502214315 | 57 | 343 | 1.0 | 2.0 | 0.00 | 1.05 | 1.05 | 99 | 1011.4 |
| 20260502213812 | 57 | 106 | 2.0 | 2.0 | 0.00 | 1.05 | 1.05 | 99 | 1011.4 |
| 20260502213309 | 57 | 97 | 0.0 | 1.0 | 0.00 | 1.05 | 1.05 | 99 | 1011.0 |
| 20260502212808 | 58 | 94 | 1.0 | 1.0 | 0.00 | 1.05 | 1.05 | 99 | 1010.8 |
| 20260502212306 | 58 | 86 | 0.0 | 1.0 | 0.00 | 1.05 | 1.05 | 99 | 1010.5 |
| 20260502211802 | 57 | 91 | 1.0 | 1.0 | 0.00 | 1.05 | 1.05 | 99 | 1010.6 |
| 20260502211258 | 57 | 96 | 0.0 | 1.0 | 0.00 | 1.05 | 1.05 | 99 | 1010.4 |
| 20260502210755 | 57 | 105 | 0.0 | 0.0 | 0.00 | 1.05 | 1.05 | 99 | 1010.6 |
| 20260502210253 | 57 | 80 | 1.0 | 2.0 | 0.00 | 1.05 | 1.05 | 99 | 1010.6 |
| 20260502205750 | 57 | 107 | 1.0 | 1.0 | 0.00 | 1.05 | 1.05 | 99 | 1010.5 |
| 20260502205246 | 57 | 118 | 1.0 | 2.0 | 0.00 | 1.05 | 1.05 | 99 | 1010.7 |
| 20260502204743 | 57 | 159 | 0.0 | 1.0 | 0.00 | 1.05 | 1.05 | 99 | 1010.6 |
| 20260502204240 | 57 | 71 | 3.0 | 5.0 | 0.00 | 1.05 | 1.05 | 99 | 1010.3 |
| 20260502203738 | 57 | 95 | 2.0 | 3.0 | 0.00 | 1.05 | 1.05 | 99 | 1010.6 |
| 20260502203236 | 57 | 104 | 1.0 | 1.0 | 0.00 | 1.05 | 1.05 | 99 | 1010.7 |
| 20260502202729 | 58 | 105 | 1.0 | 2.0 | 0.00 | 1.05 | 1.05 | 99 | 1010.6 |
| 20260502202228 | 58 | 93 | 1.0 | 2.0 | 0.00 | 1.05 | 1.05 | 99 | 1010.2 |
| 20260502201725 | 58 | 126 | 2.0 | 3.0 | 0.00 | 1.05 | 1.05 | 99 | 1010.3 |
| 20260502201222 | 58 | 101 | 2.0 | 2.0 | 0.00 | 1.05 | 1.05 | 99 | 1010.2 |
| 20260502200718 | 58 | 171 | 3.0 | 5.0 | 0.00 | 1.05 | 1.05 | 99 | 1009.9 |
| 20260502200214 | 57 | 130 | 2.0 | 5.0 | 0.00 | 1.05 | 1.05 | 99 | 1010.2 |
| 20260502195713 | 58 | 97 | 2.0 | 2.0 | 0.00 | 1.05 | 1.05 | 99 | 1010.3 |
| 20260502195209 | 58 | 90 | 1.0 | 3.0 | 0.07 | 1.05 | 1.05 | 99 | 1010.4 |
| 20260502194706 | 58 | 81 | 3.0 | 5.0 | 0.07 | 1.05 | 1.05 | 99 | 1010.4 |
| 20260502194203 | 59 | 160 | 3.0 | 3.0 | 0.00 | 1.04 | 1.04 | 99 | 1010.5 |
| 20260502193658 | 59 | 99 | 0.0 | 1.0 | 0.00 | 1.04 | 1.04 | 99 | 1010.1 |
| 20260502193150 | 59 | 97 | 2.0 | 2.0 | 0.00 | 1.04 | 1.04 | 99 | 1010.2 |
| 20260502192645 | 59 | 83 | 1.0 | 1.0 | 0.12 | 1.04 | 1.04 | 99 | 1010.6 |
| 20260502192143 | 59 | 111 | 0.0 | 1.0 | 0.24 | 1.04 | 1.04 | 99 | 1010.8 |
| 20260502191639 | 59 | 69 | 2.0 | 2.0 | 0.19 | 1.02 | 1.02 | 99 | 1010.4 |